Wind_Speed
17 16 16 17 18 21 24 24 24 25 24 25 27 28 29 30 31 33 34 36 39 40 43 45 48 52 55 58 60 64 66 71 75 76 72 73 74 76 74 76 76 77 76 69 66 63 61 59 63 66 64 64 65 64
13 13 14 16 19 22 23 23 24 24 25 25 26 27 29 32 33 35 36 39 42 45 47 49 53 56 59 62 66 70 74 78 78 76 75 75 76 76 78 78 77 69 67 63 61 58 55 50 58 58 64 68 71 69
11 12 13 16 19 21 23 23 24 25 26 27 29 30 31 34 36 37 39 41 44 47 49 53 56 60 63 68 72 76 81 79 74 76 75 74 73 77 76 72 68 65 60 59 58 57 57 54 62 60 59 62 69 73
10 12 14 16 18 21 23 24 25 26 28 29 30 32 34 36 38 40 43 45 48 50 52 56 60 65 68 73 78 80 76 76 77 73 72 75 75 70 67 63 61 55 48 45 43 44 42 49 51 56 55 60 64 69
11 14 16 17 20 21 23 26 28 28 29 31 33 35 37 39 42 44 46 48 51 54 57 60 65 68 73 77 76 75 76 71 75 75 76 72 65 61 59 52 45 40 37 36 36 31 33 38 40 49 53 59 61 63
16 18 20 22 24 26 27 29 30 32 33 34 36 38 40 42 45 48 49 52 56 59 62 66 71 75 76 73 75 75 76 77 75 78 67 60 58 53 44 39 35 32 29 26 27 23 24 27 30 34 42 56 58 56
22 23 25 25 27 28 29 31 33 34 35 36 38 41 44 46 48 50 54 57 60 64 67 71 73 77 73 74 77 78 82 80 76 69 58 54 48 39 34 30 25 23 22 21 18 16 17 17 20 23 26 34 45 50
29 30 31 32 33 34 35 36 37 38 40 42 44 45 48 51 54 55 58 62 67 70 73 73 75 73 76 78 80 81 86 79 66 57 50 46 37 29 19 19 18 13 14 12 10 7 7 9 11 14 18 21 28 37
34 35 36 37 38 39 40 40 41 42 45 46 49 52 54 56 59 62 66 68 70 72 72 74 76 77 78 82 81 86 81 65 55 48 46 36 27 15 11 10 7 8 11 10 5 2 1 3 6 8 9 12 18 17
41 42 42 42 43 45 45 46 47 48 50 52 54 57 60 63 66 67 70 71 70 72 73 76 79 81 83 84 85 80 64 51 45 46 38 27 16 14 12 6 10 5 8 7 7 5 1 2 4 7 11 15 21 24
48 48 48 48 49 50 51 52 53 55 57 59 61 63 64 65 67 67 68 70 71 75 77 80 82 83 89 87 77 62 51 44 43 41 30 16 14 16 12 5 4 7 6 7 6 6 4 6 5 4 10 8 11 16
56 56 56 56 57 57 57 58 59 60 61 63 65 66 66 66 68 70 72 74 77 79 84 85 89 87 87 77 60 50 44 42 43 35 22 13 20 23 15 7 4 7 4 6 6 7 8 5 3 5 8 6 5 7
60 61 60 61 61 61 62 63 63 64 63 64 66 68 68 70 72 74 77 80 82 85 88 88 91 82 69 58 48 42 41 42 37 29 15 21 25 23 20 15 10 4 5 8 6 5 6 3 2 4 7 6 8 9
62 62 61 61 61 61 62 64 65 65 66 67 70 72 73 75 78 81 83 85 89 88 89 84 69 60 51 45 38 39 42 38 32 25 13 29 31 29 23 21 6 8 8 9 7 7 6 9 9 9 3 9 8 13
68 66 66 67 67 68 68 69 70 72 73 74 75 77 79 82 83 85 88 91 85 78 68 58 50 45 41 36 35 41 41 35 28 18 15 31 34 27 23 13 3 9 4 7 13 12 11 11 12 9 2 7 8 8
72 73 72 72 73 73 74 75 76 77 78 80 82 84 86 88 89 90 88 75 68 57 50 44 39 35 33 33 38 42 36 29 21 15 19 30 37 36 29 17 8 10 6 8 10 6 5 6 7 8 4 3 3 12
75 76 76 76 77 78 79 80 83 84 85 86 87 89 90 88 79 72 64 54 51 44 39 35 32 31 33 37 40 38 30 22 17 14 22 29 32 32 26 21 18 15 13 12 7 5 6 6 3 4 9 8 11 14
77 78 80 81 82 82 82 85 86 85 85 82 82 79 75 68 61 53 47 44 41 39 35 32 33 34 37 39 39 31 23 17 13 20 25 28 27 25 20 21 21 19 16 16 15 10 7 7 3 5 4 1 8 8
70 72 74 74 75 75 74 74 73 74 74 72 67 61 53 48 45 43 43 44 44 39 37 36 36 37 36 38 31 23 16 15 16 24 26 25 22 14 20 19 29 26 22 18 21 18 13 9 10 7 8 7 6 10
64 66 68 69 68 66 64 65 65 66 62 59 55 52 50 49 49 49 48 47 45 40 39 38 38 36 36 32 24 17 15 16 22 25 25 25 24 14 11 18 32 31 28 24 21 22 20 17 13 15 15 13 10 24
47 49 52 54 54 55 56 57 57 56 55 54 54 54 53 49 46 45 44 42 40 38 36 37 35 35 30 23 19 16 17 19 22 25 25 23 23 17 17 20 23 34 32 29 26 23 21 20 21 18 13 11 6 10
43 45 47 49 51 52 53 53 54 54 54 52 50 48 46 42 38 36 35 34 33 33 33 32 31 26 22 17 16 19 21 21 19 21 23 25 24 20 19 21 22 28 33 33 29 28 26 24 25 27 20 14 8 10
45 46 46 46 47 47 47 47 48 47 46 44 40 35 30 27 27 26 25 26 27 28 28 24 21 17 14 15 18 22 24 23 25 21 20 24 25 25 26 22 21 21 25 31 33 34 31 28 27 25 25 25 21 18
42 43 42 41 40 38 36 34 33 30 28 25 23 21 20 18 17 17 19 19 20 19 17 15 12 11 13 18 22 25 26 27 22 19 16 13 16 23 25 27 25 23 26 27 28 30 32 32 32 31 27 25 28 27
31 29 27 25 23 21 19 17 16 15 15 14 14 14 13 14 14 14 12 12 13 12 11 9 10 14 19 22 22 20 21 22 22 18 14 19 21 23 23 25 28 30 29 28 27 28 29 29 29 33 35 32 29 29
19 18 16 14 13 12 11 10 9 9 8 8 8 9 9 10 11 11 11 10 10 8 8 11 15 19 22 23 23 22 21 24 23 20 16 18 18 22 27 26 27 30 30 28 26 27 29 30 30 31 33 33 35 34
14 13 13 12 11 11 11 10 11 11 12 11 11 12 12 12 11 10 9 8 8 9 13 16 17 17 17 19 21 21 20 20 21 21 18 18 18 19 20 23 25 28 28 28 28 30 33 33 33 33 33 35 36 38
14 14 14 13 13 13 14 13 13 13 12 10 10 10 9 10 9 9 8 9 11 15 17 19 18 16 16 18 18 16 13 12 13 13 14 14 16 18 20 22 25 27 29 29 30 31 32 34 38 40 42 42 42 43
12 12 13 14 14 13 12 11 10 10 10 9 8 7 8 8 9 10 11 13 17 19 18 16 14 15 18 19 16 11 8 6 7 7 7 7 8 10 11 12 14 16 20 23 25 27 29 31 35 38 40 43 45 48
11 11 10 10 11 11 10 9 9 8 8 7 8 10 9 9 11 12 15 18 20 19 15 14 18 20 17 15 12 9 8 7 7 7 9 10 12 13 15 17 19 21 23 25 27 29 31 34 36 38 40 43 44 47
4 5 6 8 8 5 3 2 3 5 6 8 10 10 11 13 12 14 19 18 18 16 17 20 19 16 12 9 8 8 8 10 10 12 14 16 18 19 22 24 26 29 31 34 37 39 42 44 47 48 50 50 52 52
4 5 6 7 5 3 2 3 5 8 10 11 13 17 19 18 16 18 18 17 22 23 24 21 13 12 8 4 5 7 9 11 14 17 20 22 25 28 31 34 36 39 40 42 43 43 46 49 51 52 53 50 48 50
9 8 10 12 10 10 12 12 12 12 13 12 13 14 15 20 24 20 21 23 22 20 14 12 12 11 9 10 12 15 17 21 23 25 28 32 36 39 41 44 47 50 52 53 54 54 56 56 54 52 48 47 47 47
Wind_Direction
254 245 237 224 214 204 199 202 208 214 220 223 223 226 230 236 242 247 253 260 267 274 280 287 291 294 296 299 302 304 306 307 308 307 305 304 303 300 298 295 293 291 288 284 280 278 271 264 260 253 248 245 244 242
231 222 215 209 203 202 204 212 217 221 227 231 232 234 238 243 248 252 258 265 272 277 284 288 291 294 297 300 303 305 305 307 307 306 305 303 303 301 298 295 295 292 288 284 280 272 265 262 259 252 247 238 236 237
214 209 204 205 204 209 216 221 224 230 235 239 243 245 249 253 257 262 267 272 277 283 285 289 293 294 297 300 302 304 305 307 307 306 305 304 306 302 298 297 296 290 288 280 276 270 264 254 251 247 244 242 235 234
221 212 210 214 218 222 228 229 235 241 244 247 251 254 256 261 264 268 272 277 280 284 286 288 292 296 298 301 303 305 307 308 308 309 307 309 305 303 300 298 295 294 288 280 272 265 261 253 250 249 242 240 238 234
232 227 226 229 232 236 239 241 244 248 252 255 257 260 264 267 271 274 277 281 283 286 289 293 296 298 300 303 306 307 309 312 315 313 312 309 306 304 302 300 298 295 290 284 280 272 260 254 245 241 235 235 235 234
245 241 238 240 244 247 251 253 255 257 259 261 263 266 270 272 274 278 281 283 287 291 293 295 299 302 304 305 309 310 313 313 315 315 312 309 308 307 303 301 301 299 298 293 285 277 262 255 248 239 233 227 231 233
254 254 252 250 252 253 254 256 258 261 264 267 268 271 273 276 278 280 284 287 290 293 296 299 301 303 305 308 311 313 315 316 317 314 312 312 311 307 304 303 302 304 302 301 296 277 265 256 246 238 236 232 230 229
256 256 256 257 258 260 262 263 265 267 269 272 273 275 277 279 282 284 288 292 295 297 299 300 302 304 307 310 312 313 316 316 316 313 313 314 312 306 303 302 304 313 328 332 296 267 271 252 230 233 230 225 221 224
256 258 259 261 262 263 265 267 270 273 274 275 276 278 281 285 287 290 292 294 296 297 299 302 303 306 309 312 314 316 315 314 313 314 316 316 307 283 269 298 326 342 334 337 340 327 148 267 275 247 241 226 214 211
258 259 260 262 265 266 267 269 270 272 273 276 278 281 285 287 290 291 293 295 296 299 300 303 305 308 310 314 315 314 313 312 312 316 316 315 282 237 260 252 7 333 352 323 304 312 109 75 299 247 238 229 220 221
259 261 262 263 264 266 268 270 272 274 277 279 281 283 285 288 290 292 294 296 298 300 302 303 306 307 312 311 313 311 309 311 315 313 315 297 235 219 227 164 355 303 339 355 2 4 350 190 202 288 310 277 236 217
259 261 262 264 266 268 270 272 274 275 277 280 282 284 286 288 291 293 296 298 299 301 302 304 306 307 310 310 308 307 306 311 314 308 308 229 207 216 232 147 322 274 311 340 360 353 8 44 69 10 315 290 189 183
259 260 261 264 266 267 270 272 274 277 279 282 285 288 290 292 293 296 297 299 300 301 303 304 304 306 305 303 303 302 305 311 308 300 286 203 204 202 227 192 206 274 44 352 318 306 330 348 47 316 297 305 222 198
260 262 264 266 268 270 272 274 277 281 282 284 286 288 290 292 294 295 297 299 299 301 302 302 302 301 300 299 300 302 307 309 301 291 259 201 197 209 233 232 191 173 111 35 31 88 274 253 248 257 220 243 234 208
262 263 265 267 268 270 273 275 278 280 282 284 286 289 290 291 294 296 297 299 300 301 300 298 298 297 297 297 300 305 309 305 296 275 229 198 196 204 230 241 289 201 204 117 107 96 89 78 66 69 345 281 256 198
263 265 266 267 269 271 272 274 277 279 282 285 287 288 288 291 293 294 296 297 298 298 296 294 294 295 295 298 304 307 307 301 284 249 195 192 201 209 219 224 199 206 185 148 149 114 138 126 109 82 51 327 233 226
263 265 266 268 270 271 273 274 276 279 281 283 285 286 289 291 293 292 292 292 294 296 293 291 293 294 297 302 306 306 303 289 261 209 187 193 200 211 218 211 179 194 189 176 172 161 153 121 106 172 223 222 221 226
265 266 269 271 273 273 274 275 277 280 281 283 284 288 289 290 289 285 284 286 291 293 291 289 290 295 300 303 305 303 294 267 233 185 189 197 203 211 225 206 188 188 195 190 194 193 201 194 231 244 232 190 159 136
265 267 269 271 273 276 277 279 280 281 283 284 286 287 287 284 281 280 280 282 284 286 287 288 291 295 299 302 300 295 276 244 195 183 190 193 191 211 220 207 195 187 197 200 193 196 194 211 215 229 232 230 204 177
266 267 268 270 274 275 275 277 280 282 282 283 283 281 280 279 279 278 278 278 279 279 281 286 290 295 298 293 290 276 246 218 186 185 189 190 191 200 204 212 206 197 198 204 208 205 201 205 212 223 240 244 244 216
271 271 271 272 274 276 277 278 278 279 280 280 280 281 282 281 279 277 275 274 274 275 278 283 290 292 287 284 268 244 220 207 191 189 189 190 191 184 204 211 214 210 212 208 211 218 214 219 217 222 222 230 246 225
273 274 275 276 277 277 278 279 279 278 279 280 282 283 282 280 276 274 270 266 267 272 277 286 286 282 276 260 237 217 204 203 175 185 190 192 190 197 212 219 227 218 217 219 219 223 221 224 226 227 226 218 219 225
280 281 281 281 280 280 281 279 279 278 279 281 281 280 277 273 272 269 263 261 266 273 279 280 278 270 246 226 206 197 195 193 202 179 187 195 194 209 214 221 224 234 231 226 226 227 227 232 234 236 236 238 234 236
286 286 285 285 285 285 283 281 279 277 275 273 273 272 271 267 263 259 260 265 272 273 274 273 262 235 202 190 185 189 190 198 209 218 212 207 207 216 222 224 221 223 232 240 239 235 231 233 234 236 241 246 241 237
291 289 288 288 288 289 286 281 276 272 268 266 264 261 258 255 254 258 263 266 267 268 263 243 211 189 171 166 172 176 183 194 206 211 190 210 223 222 222 226 227 230 235 240 243 245 245 241 242 245 248 242 241 241
292 294 295 291 289 286 284 285 282 278 270 261 252 246 247 250 256 262 264 258 257 245 224 189 185 174 170 170 168 175 184 193 204 211 217 223 233 233 228 228 238 243 246 250 252 250 251 253 251 246 241 240 239 239
292 293 287 282 279 281 281 279 276 271 265 262 259 257 256 255 254 247 239 234 216 198 184 172 167 167 173 175 179 186 192 202 211 216 229 236 238 238 237 238 246 251 252 253 255 253 248 247 249 249 247 245 244 244
278 276 280 282 283 283 284 281 277 274 271 264 253 244 240 237 234 226 212 194 182 172 171 170 163 165 169 177 182 182 183 199 204 216 230 241 248 253 257 258 259 259 259 258 259 259 256 254 253 252 252 250 248 246
276 285 290 291 291 291 290 285 276 266 257 248 234 214 198 191 187 170 173 172 167 161 160 165 168 165 159 159 172 171 174 193 205 223 233 252 260 269 273 278 281 279 274 270 268 265 264 263 261 260 259 258 256 254
295 300 299 304 302 297 285 270 261 245 230 219 203 197 187 179 168 167 157 157 160 161 164 168 165 153 154 154 158 181 202 216 227 248 263 267 267 269 273 277 280 281 280 279 279 278 278 276 274 272 270 267 266 265
316 337 335 333 331 324 310 288 223 208 199 186 179 173 149 146 158 163 155 159 159 156 150 146 135 136 140 160 187 214 225 235 246 256 260 263 266 267 268 269 271 271 271 270 270 271 272 273 274 275 276 277 276 273
92 43 20 18 29 53 83 89 136 141 138 149 159 157 159 151 151 152 153 153 145 146 146 141 155 165 172 183 234 251 257 257 258 265 270 274 278 280 281 282 283 283 284 286 289 287 287 290 290 289 288 282 281 279
92 67 65 62 73 87 93 100 105 115 122 126 135 147 148 145 145 148 147 145 141 141 148 178 199 209 223 239 255 253 257 263 271 277 283 287 289 289 290 292 293 292 291 290 293 294 296 295 293 291 290 290 288 287
Height
10775 10777 10779 10782 10786 10789 10793 10797 10801 10804 10807 10810 10812 10815 10818 10819 10821 10822 10823 10822 10821 10820 10818 10815 10812 10807 10802 10796 10790 10785 10779 10770 10763 10753 10747 10736 10728 10719 10712 10702 10695 10689 10681 10678 10675 10676 10676 10681 10679 10684 10694 10704 10708 10712
10772 10774 10777 10780 10784 10788 10791 10794 10797 10800 10803 10805 10807 10809 10811 10812 10813 10814 10814 10813 10812 10810 10807 10803 10799 10794 10788 10782 10775 10768 10760 10753 10744 10733 10725 10715 10704 10693 10683 10672 10665 10660 10653 10651 10648 10649 10651 10653 10651 10658 10662 10671 10680 10691
10770 10773 10775 10779 10782 10786 10789 10791 10794 10796 10798 10800 10802 10803 10804 10804 10805 10805 10804 10803 10801 10797 10794 10790 10785 10779 10773 10766 10759 10751 10741 10731 10723 10710 10700 10691 10683 10667 10654 10646 10638 10631 10628 10622 10619 10620 10622 10630 10629 10630 10637 10647 10658 10666
10771 10772 10774 10777 10780 10782 10785 10787 10789 10791 10792 10794 10796 10796 10796 10796 10796 10795 10793 10791 10788 10785 10781 10775 10771 10764 10758 10751 10742 10732 10723 10713 10702 10691 10677 10667 10656 10643 10631 10624 10614 10608 10603 10598 10596 10595 10602 10601 10607 10612 10621 10624 10631 10641
10769 10770 10772 10774 10777 10779 10780 10782 10783 10784 10785 10787 10787 10786 10786 10786 10785 10783 10782 10779 10774 10770 10766 10762 10755 10748 10741 10733 10724 10714 10704 10693 10682 10669 10656 10642 10631 10623 10612 10604 10597 10592 10587 10584 10581 10582 10583 10582 10585 10588 10597 10602 10610 10617
10766 10767 10769 10770 10772 10773 10775 10776 10777 10777 10777 10777 10777 10776 10775 10774 10772 10770 10768 10765 10761 10755 10750 10744 10737 10729 10723 10714 10704 10694 10685 10674 10662 10649 10637 10625 10614 10605 10597 10591 10586 10580 10576 10573 10570 10569 10570 10571 10572 10574 10578 10582 10590 10602
10761 10763 10764 10765 10766 10766 10767 10767 10768 10767 10767 10767 10766 10766 10764 10761 10759 10757 10754 10749 10745 10739 10733 10725 10719 10709 10703 10696 10685 10674 10662 10651 10641 10628 10619 10609 10600 10594 10587 10582 10578 10574 10569 10565 10562 10561 10562 10563 10565 10567 10570 10576 10583 10592
10754 10755 10756 10757 10758 10758 10758 10758 10758 10758 10757 10756 10755 10753 10750 10748 10745 10743 10740 10734 10728 10721 10714 10707 10701 10693 10686 10677 10667 10655 10644 10630 10623 10613 10605 10597 10590 10584 10580 10577 10574 10569 10566 10562 10559 10558 10559 10561 10561 10563 10566 10570 10576 10583
10745 10745 10746 10747 10747 10747 10747 10747 10747 10746 10744 10743 10741 10738 10736 10734 10730 10727 10722 10716 10710 10704 10696 10689 10680 10676 10668 10658 10648 10638 10625 10616 10607 10601 10594 10587 10582 10579 10576 10573 10571 10568 10565 10562 10560 10558 10558 10560 10563 10564 10566 10570 10575 10583
10733 10733 10734 10735 10735 10735 10734 10734 10733 10731 10730 10728 10726 10724 10721 10718 10713 10709 10703 10698 10691 10685 10678 10671 10662 10655 10648 10638 10629 10619 10609 10604 10596 10590 10584 10579 10577 10575 10573 10572 10571 10567 10565 10563 10562 10560 10560 10561 10562 10563 10566 10568 10571 10576
10719 10720 10720 10721 10721 10721 10720 10719 10718 10717 10715 10713 10710 10707 10703 10698 10694 10690 10685 10680 10675 10667 10660 10653 10644 10636 10629 10621 10611 10602 10596 10592 10586 10580 10576 10573 10572 10572 10572 10570 10571 10568 10566 10564 10563 10562 10561 10561 10563 10564 10564 10565 10568 10571
10704 10705 10705 10705 10706 10705 10704 10703 10701 10699 10698 10695 10692 10689 10685 10682 10677 10672 10668 10662 10657 10650 10640 10633 10627 10618 10611 10603 10596 10591 10585 10581 10576 10570 10569 10568 10568 10567 10570 10569 10569 10568 10568 10567 10566 10565 10564 10564 10564 10566 10568 10569 10570 10572
10687 10688 10689 10689 10689 10688 10687 10685 10684 10682 10680 10677 10675 10670 10668 10663 10659 10654 10649 10643 10637 10630 10623 10614 10608 10601 10593 10589 10583 10580 10575 10570 10565 10561 10561 10562 10565 10566 10567 10567 10568 10570 10569 10568 10567 10566 10566 10566 10566 10568 10570 10571 10573 10575
10669 10671 10672 10672 10671 10670 10668 10666 10665 10664 10661 10659 10656 10653 10649 10645 10640 10634 10628 10622 10616 10609 10603 10594 10588 10584 10579 10575 10571 10568 10564 10558 10554 10551 10553 10556 10561 10562 10565 10566 10568 10569 10569 10570 10568 10567 10569 10565 10566 10567 10570 10571 10573 10576
10651 10654 10653 10653 10652 10651 10650 10648 10646 10644 10642 10640 10637 10633 10629 10624 10620 10614 10607 10601 10593 10590 10583 10578 10573 10570 10566 10563 10560 10557 10552 10547 10544 10544 10546 10552 10557 10560 10562 10566 10569 10569 10569 10570 10570 10569 10568 10568 10568 10568 10570 10571 10572 10575
10632 10632 10634 10633 10632 10631 10630 10629 10627 10624 10621 10619 10615 10613 10608 10604 10600 10593 10587 10582 10574 10572 10567 10564 10561 10558 10555 10552 10549 10545 10541 10537 10535 10536 10540 10546 10552 10556 10559 10563 10566 10569 10569 10570 10571 10571 10570 10570 10570 10570 10571 10572 10572 10575
10610 10611 10613 10612 10611 10610 10609 10607 10605 10603 10600 10598 10594 10590 10587 10583 10576 10572 10568 10565 10560 10558 10555 10552 10550 10547 10545 10542 10538 10534 10530 10527 10527 10530 10535 10540 10545 10551 10555 10558 10561 10566 10568 10569 10570 10570 10570 10570 10570 10568 10569 10567 10569 10570
10589 10589 10588 10587 10587 10587 10586 10584 10583 10581 10578 10575 10571 10567 10564 10561 10557 10553 10552 10550 10548 10546 10544 10542 10540 10538 10534 10530 10526 10524 10521 10520 10521 10524 10529 10535 10541 10547 10550 10553 10556 10560 10563 10565 10567 10569 10570 10569 10569 10569 10568 10568 10567 10568
10567 10566 10566 10566 10565 10564 10561 10559 10560 10557 10554 10551 10548 10546 10545 10542 10540 10538 10538 10536 10535 10534 10532 10531 10529 10526 10523 10519 10516 10514 10514 10514 10516 10520 10525 10530 10536 10542 10545 10549 10551 10554 10558 10560 10563 10565 10567 10567 10568 10567 10566 10566 10567 10567
10546 10546 10547 10546 10545 10543 10541 10538 10539 10537 10534 10531 10530 10528 10527 10526 10525 10523 10522 10521 10520 10521 10520 10519 10517 10514 10511 10508 10507 10506 10507 10509 10512 10517 10521 10527 10533 10537 10541 10543 10546 10548 10550 10553 10556 10559 10561 10563 10564 10563 10563 10564 10564 10563
10529 10529 10528 10527 10526 10524 10522 10520 10519 10518 10516 10514 10512 10511 10509 10509 10507 10506 10506 10506 10506 10507 10507 10506 10505 10501 10499 10499 10499 10499 10501 10505 10509 10514 10519 10524 10529 10534 10536 10537 10539 10543 10545 10548 10551 10553 10556 10557 10559 10559 10559 10560 10560 10559
10515 10514 10512 10511 10509 10507 10505 10503 10501 10500 10498 10496 10495 10494 10492 10492 10491 10490 10491 10492 10494 10495 10495 10495 10492 10490 10490 10490 10491 10494 10497 10502 10508 10512 10516 10521 10526 10529 10531 10532 10533 10536 10539 10541 10544 10546 10548 10550 10551 10553 10555 10557 10558 10559
10501 10499 10497 10494 10492 10489 10487 10486 10484 10483 10481 10481 10480 10479 10479 10479 10479 10479 10480 10482 10484 10485 10485 10483 10482 10481 10482 10483 10486 10490 10495 10501 10505 10510 10514 10518 10521 10523 10524 10526 10529 10531 10532 10534 10536 10539 10541 10543 10545 10547 10549 10551 10553 10554
10487 10484 10481 10479 10476 10474 10472 10470 10469 10469 10468 10468 10469 10469 10469 10470 10470 10471 10473 10474 10475 10476 10476 10475 10476 10476 10477 10480 10484 10488 10493 10499 10503 10507 10511 10515 10516 10517 10518 10520 10523 10525 10526 10527 10529 10531 10533 10536 10537 10539 10540 10542 10544 10547
10475 10473 10471 10469 10467 10464 10463 10461 10461 10461 10461 10462 10462 10462 10463 10464 10465 10466 10467 10469 10469 10470 10470 10471 10473 10475 10477 10480 10483 10488 10492 10496 10500 10503 10508 10510 10510 10511 10513 10515 10517 10518 10519 10520 10522 10524 10525 10527 10528 10529 10530 10533 10535 10537
10468 10466 10465 10463 10461 10459 10458 10457 10457 10457 10457 10458 10459 10459 10460 10460 10461 10462 10463 10464 10465 10466 10467 10470 10472 10474 10477 10480 10483 10487 10491 10495 10498 10500 10502 10503 10505 10507 10508 10510 10510 10511 10513 10515 10515 10516 10516 10517 10518 10519 10521 10522 10524 10526
10463 10461 10460 10458 10457 10456 10455 10455 10454 10453 10453 10454 10454 10455 10455 10456 10457 10458 10459 10460 10462 10463 10466 10468 10472 10474 10477 10480 10483 10486 10490 10493 10495 10497 10499 10500 10501 10502 10503 10504 10505 10505 10506 10506 10506 10506 10506 10507 10507 10508 10509 10510 10512 10513
10459 10458 10456 10455 10453 10451 10450 10449 10449 10448 10448 10449 10450 10450 10451 10452 10453 10455 10456 10458 10460 10463 10466 10469 10472 10475 10478 10480 10484 10487 10490 10492 10493 10494 10496 10497 10498 10498 10498 10498 10498 10498 10498 10498 10497 10497 10496 10496 10496 10496 10496 10496 10495 10496
10456 10454 10451 10449 10447 10446 10445 10445 10444 10444 10445 10445 10446 10447 10448 10449 10451 10452 10455 10457 10460 10463 10467 10471 10473 10476 10478 10482 10485 10487 10490 10491 10492 10492 10493 10493 10493 10493 10492 10492 10490 10489 10488 10488 10487 10487 10486 10485 10484 10483 10482 10482 10481 10481
10452 10449 10447 10446 10444 10442 10441 10441 10441 10441 10442 10443 10444 10445 10447 10449 10451 10453 10455 10458 10461 10465 10469 10471 10474 10477 10480 10483 10486 10488 10489 10490 10490 10490 10490 10490 10489 10489 10488 10487 10485 10484 10482 10480 10479 10477 10476 10473 10471 10469 10468 10466 10465 10464
10450 10448 10446 10444 10442 10441 10440 10439 10439 10439 10440 10441 10443 10445 10448 10450 10452 10454 10457 10461 10464 10467 10470 10474 10477 10480 10483 10485 10486 10486 10487 10487 10487 10487 10487 10485 10484 10483 10481 10480 10478 10475 10473 10470 10467 10465 10462 10459 10456 10453 10450 10448 10446 10445
10451 10449 10448 10446 10443 10441 10440 10440 10440 10441 10441 10442 10444 10446 10448 10451 10455 10458 10461 10465 10467 10471 10475 10477 10480 10482 10483 10484 10485 10485 10485 10484 10483 10482 10481 10480 10478 10475 10472 10469 10466 10462 10459 10455 10451 10448 10445 10441 10437 10434 10431 10426 10423 10420
10453 10453 10450 10448 10446 10445 10444 10444 10444 10444 10445 10446 10448 10451 10453 10455 10458 10461 10465 10468 10472 10475 10478 10480 10481 10482 10482 10482 10482 10482 10481 10479 10478 10476 10474 10471 10468 10464 10459 10455 10451 10446 10441 10436 10433 10430 10426 10420 10415 10410 10405 10402 10398 10395